Regional Weather Roundup
Issued by NWS

Home | Current Version | Previous Version | Graphics & Text | Print | Product List | Glossary On
Versions: 1 2 3 4 5 6 7 8 9 10 11 12 13 14 15 16 17 18 19 20 21 22 23 24 25 26 27 28 29 30 31 32 33 34 35 36 37 38 39 40 41 42 43 44 45 46 47 48
000
ASUS45 KTFX 272110
RWRMT
MONTANA REGIONAL WEATHER ROUNDUP
NATIONAL WEATHER SERVICE GREAT FALLS MT
300 PM MDT MON JUL 27 2015

NOTE: "FAIR" INDICATES FEW OR NO CLOUDS BELOW 12000 FEET WITH NO
SIGNIFICANT WEATHER AND/OR OBSTRUCTIONS TO VISIBILITY.

MTZ001>007-043-272200-
WEST OF THE DIVIDE

CITY           SKY/WX    TMP DP  RH WIND       PRES   REMARKS
KALISPELL      LGT RAIN  56  49  77 SE8       29.99S
MISSOULA       HVY RAIN  47  43  86 VRB5G26   30.06R FOG
BUTTE          LGT RAIN  46  42  86 NW10      30.05R
MULLAN PASS    CLOUDY    49  39  68 NW6       30.08R
DEER LODGE       N/A     48  46  93 E6        30.07R
EUREKA           N/A     64  43  45 W9        29.97F
HAMILTON         N/A     54  45  71 S10       30.05S
LIBBY            N/A     70  41  35 W3        29.96S
PLAINS           N/A     63  47  55 SE2       30.01R
RONAN            N/A     51  48  89 NE3       30.06R
THOMPSON FALLS   N/A     60  50  69 S1        30.04R
$$

MTZ008-052>055-272200-
SOUTHWEST MONTANA

CITY           SKY/WX    TMP DP  RH WIND       PRES   REMARKS
BOZEMAN        RAIN      52  48  86 SE6       30.00S FOG
DILLON         CLOUDY    49  46  90 N9        30.01R
W YELLOWSTONE  LGT RAIN  41  41 100 SW3       30.09S
TWIN BRIDGES     N/A     50  43  77 NW2       30.01R
$$

MTZ009-010-012-014-046-048-049-054-272200-
EAST SLOPES AND CENTRAL MONTANA

CITY           SKY/WX    TMP DP  RH WIND       PRES   REMARKS
CUT BANK       CLOUDY    59  41  51 W13G21    29.95R
GREAT FALLS    LGT RAIN  54  50  86 N6        29.97R
MALMSTROM AFB  LGT RAIN  54  49  86 NW6       29.97R
HELENA         LGT RAIN  55  49  80 NW6       29.98R
CONRAD           N/A     58  55  89 CALM      29.99R
$$

MTZ011-013-016-021-045-047-050-051-272200-
NORTH CENTRAL MONTANA

CITY           SKY/WX    TMP DP  RH WIND       PRES   REMARKS
HAVRE          LGT RAIN  57  55  93 NW14      29.87F
LEWISTOWN      LGT RAIN  52  50  93 W18G25    29.90F
CHINOOK          N/A     57  57 100 NW17G24   29.84R
FORT BENTON      N/A     55  52  88 W9        29.95R
$$

MTZ017>020-022>027-061-062-272200-
NORTHEAST MONTANA

CITY           SKY/WX    TMP DP  RH WIND       PRES   REMARKS
GLASGOW        CLOUDY    79  58  48 N14G21    29.64F
JORDAN           N/A     77  58  51 N9        29.68F
SIDNEY         PTSUNNY  N/A N/A N/A E9        29.60F
WOLF POINT     PTSUNNY   89  59  36 E16G24    29.61F
MALTA            N/A     76  59  55 CALM      29.72S
PLENTYWOOD       N/A     86  57  37 E13       29.66F
POPLAR           N/A     84  59  42 NE9G21    29.62F
SCOBEY           N/A     78  61  55 N18       29.70F
$$

MTZ028>42-056>058-272200-
SOUTHCENTRAL AND SOUTHEAST MONTANA

CITY           SKY/WX    TMP DP  RH WIND       PRES   REMARKS
BAKER          PTSUNNY   86  58  38 SE14      29.65F
BILLINGS       MOSUNNY   77  52  41 NE9       29.75S
LIVINGSTON     LGT RAIN  54 N/A N/A W20G28    29.95F
MILES CITY     MOSUNNY   89  59  36 W8        29.61F
FORSYTH          N/A     82  57  42 NW6       29.63F
LAUREL           N/A     74  51  44 CALM      29.79R
ROUNDUP          N/A     75  50  41 N7        29.69S
$$

REGIONAL REPORTS...DAKOTAS

CITY           SKY/WX    TMP DP  RH WIND       PRES   REMARKS
WILLISTON      PTSUNNY   88  57  34 S10       29.65F
MINOT          SUNNY     90  68  48 E23G31    29.66F HX  94
DICKINSON      MOSUNNY   87  66  49 SE21G28   29.65F
BEACH          FAIR      84  63  48 SE18      29.65F
CROSBY         FAIR      79  66  65 E10       29.70F
BISMARCK       SUNNY     92  66  42 SE22G32   29.69F HX  94
GRAND FORKS    PTSUNNY   84  71  65 SE15      29.80F
FARGO          PTSUNNY   90  70  51 S17G28    29.81F HX  95
BUFFALO SD       N/A     89  57  33 S15       29.60F
RAPID CITY     MOSUNNY   92  66  42 S15G24    29.67F HX  94
$$

REGIONAL REPORTS...WYOMING/IDAHO/WASHINGTON

CITY           SKY/WX    TMP DP  RH WIND       PRES   REMARKS
GILLETTE       PTSUNNY   85  50  29 E13       29.71F
SHERIDAN       MOSUNNY   73  53  49 SW13      29.79R THUNDER
BUFFALO WY     TSTM      71  56  58 W5        29.82R
CODY           PTSUNNY   70  52  52 N14G20    29.77S THUNDER
YELLOWSTONE LA   N/A     47  35  63 W9G28     30.11R
IDAHO FALLS    CLOUDY    60  47  61 S23G29    30.03F
SALMON         CLOUDY    50  46  87 N3        30.07R
BOISE          SUNNY     73  35  25 NW20G25   30.04S
SPOKANE        PTSUNNY   69  41  36 W18       30.03S
$$

REGIONAL REPORTS...ALBERTA

CITY           SKY/WX    TMP DP  RH WIND       PRES   REMARKS
EDMONTON       PTSUNNY   70  43  37 N7        29.93S
CALGARY        PTSUNNY   63  43  48 N18       29.98F
LETHBRIDGE     CLOUDY    66  45  45 NW21      29.93F
MEDICINE HAT   CLOUDY    66  52  59 W8        29.87F
WATERTON GATE    N/A     50  46  87 NW5         N/A
CARDSTON         N/A     61  43  51 N10         N/A
MILK RIVER       N/A     64  43  45 N15         N/A
ONEFOUR          N/A     55  52  88 NW17        N/A
$$

REGIONAL REPORTS...SASKATCHEWAN

CITY           SKY/WX    TMP DP  RH WIND       PRES   REMARKS
SWIFT CURRENT  CLOUDY    66  57  72 NE10      29.83F
REGINA         PTSUNNY   68  55  64 E21G35    29.76F
SASKATOON      CLOUDY    64  59  82 NE12G20   29.87S
CYPRESS HILLS    N/A     52  48  87 N9          N/A
VAL MARIE        N/A     70  57  64 NE18        N/A
ROCKGLEN         N/A     68  61  77 N12G18      N/A
$$



USA.gov is the U.S. government's official web portal to all federal, state and local government web resources and services.